Year,Month,Day,Hour,Minute,Value (Times are PST for insolation in W/m^2)
2017,06,02,00,00,0.00
2017,06,02,00,01,0.00
2017,06,02,00,02,0.00
2017,06,02,00,03,0.00
2017,06,02,00,04,0.00
2017,06,02,00,05,0.00
2017,06,02,00,06,0.00
2017,06,02,00,07,0.00
2017,06,02,00,08,0.00
2017,06,02,00,09,0.00
2017,06,02,00,10,0.00
2017,06,02,00,11,0.00
2017,06,02,00,12,0.00
2017,06,02,00,13,0.00
2017,06,02,00,14,0.00
2017,06,02,00,15,0.00
2017,06,02,00,16,0.00
2017,06,02,00,17,0.00
2017,06,02,00,18,0.00
2017,06,02,00,19,0.00
2017,06,02,00,20,0.00
2017,06,02,00,21,0.00
2017,06,02,00,22,0.00
2017,06,02,00,23,0.00
2017,06,02,00,24,0.00
2017,06,02,00,25,0.00
2017,06,02,00,26,0.00
2017,06,02,00,27,0.00
2017,06,02,00,28,0.00
2017,06,02,00,29,0.00
2017,06,02,00,30,0.00
2017,06,02,00,31,0.00
2017,06,02,00,32,0.00
2017,06,02,00,33,0.00
2017,06,02,00,34,0.00
2017,06,02,00,35,0.00
2017,06,02,00,36,0.00
2017,06,02,00,37,0.00
2017,06,02,00,38,0.00
2017,06,02,00,39,0.00
2017,06,02,00,40,0.00
2017,06,02,00,41,0.00
2017,06,02,00,42,0.00
2017,06,02,00,43,0.00
2017,06,02,00,44,0.00
2017,06,02,00,45,0.00
2017,06,02,00,46,0.00
2017,06,02,00,47,0.00
2017,06,02,00,48,0.00
2017,06,02,00,49,0.00
2017,06,02,00,50,0.00
2017,06,02,00,51,0.00
2017,06,02,00,52,0.00
2017,06,02,00,53,0.00
2017,06,02,00,54,0.00
2017,06,02,00,55,0.00
2017,06,02,00,56,0.00
2017,06,02,00,57,0.00
2017,06,02,00,58,0.00
2017,06,02,00,59,0.00
2017,06,02,01,00,0.00
2017,06,02,01,01,0.00
2017,06,02,01,02,0.00
2017,06,02,01,03,0.00
2017,06,02,01,04,0.00
2017,06,02,01,05,0.00
2017,06,02,01,06,0.00
2017,06,02,01,07,0.00
2017,06,02,01,08,0.00
2017,06,02,01,09,0.00
2017,06,02,01,10,0.00
2017,06,02,01,11,0.00
2017,06,02,01,12,0.00
2017,06,02,01,13,0.00
2017,06,02,01,14,0.00
2017,06,02,01,15,0.00
2017,06,02,01,16,0.00
2017,06,02,01,17,0.00
2017,06,02,01,18,0.00
2017,06,02,01,19,0.00
2017,06,02,01,20,0.00
2017,06,02,01,21,0.00
2017,06,02,01,22,0.00
2017,06,02,01,23,0.00
2017,06,02,01,24,0.00
2017,06,02,01,25,0.00
2017,06,02,01,26,0.00
2017,06,02,01,27,0.00
2017,06,02,01,28,0.00
2017,06,02,01,29,0.00
2017,06,02,01,30,0.00
2017,06,02,01,31,0.00
2017,06,02,01,32,0.00
2017,06,02,01,33,0.00
2017,06,02,01,34,0.00
2017,06,02,01,35,0.00
2017,06,02,01,36,0.00
2017,06,02,01,37,0.00
2017,06,02,01,38,0.00
2017,06,02,01,39,0.00
2017,06,02,01,40,0.00
2017,06,02,01,41,0.00
2017,06,02,01,42,0.00
2017,06,02,01,43,0.00
2017,06,02,01,44,0.00
2017,06,02,01,45,0.00
2017,06,02,01,46,0.00
2017,06,02,01,47,0.00
2017,06,02,01,48,0.00
2017,06,02,01,49,0.00
2017,06,02,01,50,0.00
2017,06,02,01,51,0.00
2017,06,02,01,52,0.00
2017,06,02,01,53,0.00
2017,06,02,01,54,0.00
2017,06,02,01,55,0.00
2017,06,02,01,56,0.00
2017,06,02,01,57,0.00
2017,06,02,01,58,0.00
2017,06,02,01,59,0.00
2017,06,02,02,00,0.00
2017,06,02,02,01,0.00
2017,06,02,02,02,0.00
2017,06,02,02,03,0.00
2017,06,02,02,04,0.00
2017,06,02,02,05,0.00
2017,06,02,02,06,0.00
2017,06,02,02,07,0.00
2017,06,02,02,08,0.00
2017,06,02,02,09,0.00
2017,06,02,02,10,0.00
2017,06,02,02,11,0.00
2017,06,02,02,12,0.00
2017,06,02,02,13,0.00
2017,06,02,02,14,0.00
2017,06,02,02,15,0.00
2017,06,02,02,16,0.00
2017,06,02,02,17,0.00
2017,06,02,02,18,0.00
2017,06,02,02,19,0.00
2017,06,02,02,20,0.00
2017,06,02,02,21,0.00
2017,06,02,02,22,0.00
2017,06,02,02,23,0.00
2017,06,02,02,24,0.00
2017,06,02,02,25,0.00
2017,06,02,02,26,0.00
2017,06,02,02,27,0.00
2017,06,02,02,28,0.00
2017,06,02,02,29,0.00
2017,06,02,02,30,0.00
2017,06,02,02,31,0.00
2017,06,02,02,32,0.00
2017,06,02,02,33,0.00
2017,06,02,02,34,0.00
2017,06,02,02,35,0.00
2017,06,02,02,36,0.00
2017,06,02,02,37,0.00
2017,06,02,02,38,0.00
2017,06,02,02,39,0.00
2017,06,02,02,40,0.00
2017,06,02,02,41,0.00
2017,06,02,02,42,0.00
2017,06,02,02,43,0.00
2017,06,02,02,44,0.00
2017,06,02,02,45,0.00
2017,06,02,02,46,0.00
2017,06,02,02,47,0.00
2017,06,02,02,48,0.00
2017,06,02,02,49,0.00
2017,06,02,02,50,0.00
2017,06,02,02,51,0.00
2017,06,02,02,52,0.00
2017,06,02,02,53,0.00
2017,06,02,02,54,0.00
2017,06,02,02,55,0.00
2017,06,02,02,56,0.00
2017,06,02,02,57,0.00
2017,06,02,02,58,0.00
2017,06,02,02,59,0.00
2017,06,02,03,00,0.00
2017,06,02,03,01,0.00
2017,06,02,03,02,0.00
2017,06,02,03,03,0.00
2017,06,02,03,04,0.00
2017,06,02,03,05,0.00
2017,06,02,03,06,0.00
2017,06,02,03,07,0.00
2017,06,02,03,08,0.00
2017,06,02,03,09,0.00
2017,06,02,03,10,0.00
2017,06,02,03,11,0.00
2017,06,02,03,12,0.00
2017,06,02,03,13,0.00
2017,06,02,03,14,0.00
2017,06,02,03,15,0.00
2017,06,02,03,16,0.00
2017,06,02,03,17,0.00
2017,06,02,03,18,0.00
2017,06,02,03,19,0.00
2017,06,02,03,20,0.00
2017,06,02,03,21,0.00
2017,06,02,03,22,0.00
2017,06,02,03,23,0.00
2017,06,02,03,24,0.00
2017,06,02,03,25,0.00
2017,06,02,03,26,0.00
2017,06,02,03,27,0.00
2017,06,02,03,28,0.00
2017,06,02,03,29,0.00
2017,06,02,03,30,0.00
2017,06,02,03,31,0.00
2017,06,02,03,32,0.00
2017,06,02,03,33,0.00
2017,06,02,03,34,0.00
2017,06,02,03,35,0.00
2017,06,02,03,36,0.00
2017,06,02,03,37,0.00
2017,06,02,03,38,0.00
2017,06,02,03,39,0.00
2017,06,02,03,40,0.00
2017,06,02,03,41,0.00
2017,06,02,03,42,0.00
2017,06,02,03,43,0.00
2017,06,02,03,44,0.00
2017,06,02,03,45,0.00
2017,06,02,03,46,0.00
2017,06,02,03,47,0.00
2017,06,02,03,48,0.00
2017,06,02,03,49,0.00
2017,06,02,03,50,0.00
2017,06,02,03,51,0.00
2017,06,02,03,52,0.00
2017,06,02,03,53,0.00
2017,06,02,03,54,0.00
2017,06,02,03,55,0.00
2017,06,02,03,56,0.00
2017,06,02,03,57,0.00
2017,06,02,03,58,0.00
2017,06,02,03,59,0.00
2017,06,02,04,00,0.00
2017,06,02,04,01,0.00
2017,06,02,04,02,0.00
2017,06,02,04,03,0.00
2017,06,02,05,04,0.00
2017,06,02,05,05,0.00
2017,06,02,05,06,0.00
2017,06,02,05,07,0.00
2017,06,02,05,08,0.00
2017,06,02,05,09,0.00
2017,06,02,05,10,0.00
2017,06,02,05,11,0.00
2017,06,02,05,12,0.00
2017,06,02,05,13,0.00
2017,06,02,05,14,0.00
2017,06,02,05,15,0.00
2017,06,02,05,16,0.00
2017,06,02,05,17,0.00
2017,06,02,05,18,0.00
2017,06,02,05,19,0.00
2017,06,02,05,20,0.00
2017,06,02,05,21,0.00
2017,06,02,05,22,0.00
2017,06,02,05,23,0.00
2017,06,02,05,24,0.00
2017,06,02,05,25,0.00
2017,06,02,05,26,0.00
2017,06,02,05,27,0.00
2017,06,02,05,28,3.70
2017,06,02,05,29,5.00
2017,06,02,05,30,5.00
2017,06,02,05,31,5.60
2017,06,02,05,32,7.00
2017,06,02,05,33,7.00
2017,06,02,05,34,7.00
2017,06,02,05,35,8.80
2017,06,02,05,36,9.00
2017,06,02,05,37,9.00
2017,06,02,05,38,9.90
2017,06,02,05,39,11.00
2017,06,02,05,40,11.00
2017,06,02,05,41,11.90
2017,06,02,05,42,12.00
2017,06,02,05,43,11.60
2017,06,02,05,44,11.00
2017,06,02,05,45,11.00
2017,06,02,05,46,11.00
2017,06,02,05,47,10.90
2017,06,02,05,48,9.00
2017,06,02,05,49,9.00
2017,06,02,05,50,9.00
2017,06,02,05,51,10.30
2017,06,02,05,52,11.00
2017,06,02,05,53,11.90
2017,06,02,05,54,12.00
2017,06,02,05,55,12.00
2017,06,02,05,56,12.00
2017,06,02,05,57,12.00
2017,06,02,05,58,13.70
2017,06,02,05,59,16.50
2017,06,02,06,00,19.50
2017,06,02,06,01,20.20
2017,06,02,06,02,18.50
2017,06,02,06,03,16.60
2017,06,02,06,04,16.00
2017,06,02,06,05,17.90
2017,06,02,06,06,18.30
2017,06,02,06,07,19.00
2017,06,02,06,08,19.00
2017,06,02,06,09,19.00
2017,06,02,06,10,19.00
2017,06,02,06,11,19.00
2017,06,02,06,12,19.60
2017,06,02,06,13,21.80
2017,06,02,06,14,24.10
2017,06,02,06,15,25.70
2017,06,02,06,16,27.80
2017,06,02,06,17,28.00
2017,06,02,06,18,27.40
2017,06,02,06,19,25.50
2017,06,02,06,20,23.80
2017,06,02,06,21,23.00
2017,06,02,06,22,23.00
2017,06,02,06,23,23.00
2017,06,02,06,24,23.60
2017,06,02,06,25,25.00
2017,06,02,06,26,25.00
2017,06,02,06,27,23.40
2017,06,02,06,28,23.10
2017,06,02,06,29,25.00
2017,06,02,06,30,25.40
2017,06,02,06,31,26.00
2017,06,02,06,32,26.00
2017,06,02,06,33,26.00
2017,06,02,06,34,28.10
2017,06,02,06,35,32.80
2017,06,02,06,36,36.60
2017,06,02,06,37,39.50
2017,06,02,06,38,40.00
2017,06,02,06,39,39.20
2017,06,02,06,40,37.10
2017,06,02,06,41,37.00
2017,06,02,06,42,37.00
2017,06,02,06,43,37.00
2017,06,02,06,44,37.00
2017,06,02,06,45,37.00
2017,06,02,06,46,36.70
2017,06,02,06,47,34.40
2017,06,02,06,48,32.60
2017,06,02,06,49,31.00
2017,06,02,06,50,32.20
2017,06,02,06,51,36.40
2017,06,02,06,52,40.90
2017,06,02,06,53,47.30
2017,06,02,06,54,52.20
2017,06,02,06,55,57.60
2017,06,02,06,56,62.10
2017,06,02,06,57,69.60
2017,06,02,06,58,77.10
2017,06,02,06,59,85.10
2017,06,02,07,00,92.20
2017,06,02,07,01,93.80
2017,06,02,07,02,90.80
2017,06,02,07,03,87.90
2017,06,02,07,04,82.60
2017,06,02,07,05,81.00
2017,06,02,07,06,80.10
2017,06,02,07,07,79.00
2017,06,02,07,08,82.00
2017,06,02,07,09,84.50
2017,06,02,07,10,94.80
2017,06,02,07,11,107.40
2017,06,02,07,12,97.00
2017,06,02,07,13,97.00
2017,06,02,07,14,95.40
2017,06,02,07,15,92.90
2017,06,02,07,16,87.60
2017,06,02,07,17,84.90
2017,06,02,07,18,82.00
2017,06,02,07,19,81.00
2017,06,02,07,20,82.60
2017,06,02,07,21,83.00
2017,06,02,07,22,83.20
2017,06,02,07,23,84.80
2017,06,02,07,24,88.80
2017,06,02,07,25,93.80
2017,06,02,07,26,100.90
2017,06,02,07,27,115.20
2017,06,02,07,28,127.70
2017,06,02,07,29,136.10
2017,06,02,07,30,140.10
2017,06,02,07,31,141.00
2017,06,02,07,32,139.30
2017,06,02,07,33,144.00
2017,06,02,07,34,139.20
2017,06,02,07,35,128.90
2017,06,02,07,36,130.00
2017,06,02,07,37,133.00
2017,06,02,07,38,134.90
2017,06,02,07,39,139.40
2017,06,02,07,40,141.70
2017,06,02,07,41,139.30
2017,06,02,07,42,142.40
2017,06,02,07,43,131.80
2017,06,02,07,44,121.80
2017,06,02,07,45,123.60
2017,06,02,07,46,118.00
2017,06,02,07,47,118.00
2017,06,02,07,48,119.20
2017,06,02,07,49,120.00
2017,06,02,07,50,119.90
2017,06,02,07,51,118.40
2017,06,02,07,52,120.30
2017,06,02,07,53,123.00
2017,06,02,07,54,130.90
2017,06,02,07,55,143.60
2017,06,02,07,56,152.60
2017,06,02,07,57,155.80
2017,06,02,07,58,166.20
2017,06,02,07,59,157.60
2017,06,02,08,00,147.80
2017,06,02,08,01,146.00
2017,06,02,08,02,156.40
2017,06,02,08,03,198.20
2017,06,02,08,04,292.60
2017,06,02,08,05,325.00
2017,06,02,08,06,325.00
2017,06,02,08,07,325.00
2017,06,02,08,08,353.00
2017,06,02,08,09,531.50
2017,06,02,08,10,577.00
2017,06,02,08,11,577.00
2017,06,02,08,12,402.50
2017,06,02,08,13,405.30
2017,06,02,08,14,398.70
2017,06,02,08,15,206.20
2017,06,02,08,16,165.10
2017,06,02,08,17,155.00
2017,06,02,08,18,146.70
2017,06,02,08,19,142.30
2017,06,02,08,20,148.10
2017,06,02,08,21,147.20
2017,06,02,08,22,142.00
2017,06,02,08,23,148.60
2017,06,02,08,24,159.60
2017,06,02,08,25,166.20
2017,06,02,08,26,169.40
2017,06,02,08,27,171.00
2017,06,02,08,28,171.50
2017,06,02,08,29,170.20
2017,06,02,08,30,170.50
2017,06,02,08,31,175.60
2017,06,02,08,32,179.80
2017,06,02,08,33,183.70
2017,06,02,08,34,185.50
2017,06,02,08,35,186.00
2017,06,02,08,36,186.00
2017,06,02,08,37,192.90
2017,06,02,08,38,206.50
2017,06,02,08,39,223.00
2017,06,02,08,40,250.50
2017,06,02,08,41,270.90
2017,06,02,08,42,341.10
2017,06,02,08,43,345.60
2017,06,02,08,44,223.20
2017,06,02,08,45,226.40
2017,06,02,08,46,224.30
2017,06,02,08,47,209.70
2017,06,02,08,48,206.50
2017,06,02,08,49,206.00
2017,06,02,08,50,206.20
2017,06,02,08,51,212.20
2017,06,02,08,52,215.30
2017,06,02,08,53,207.50
2017,06,02,08,54,204.30
2017,06,02,08,55,212.60
2017,06,02,08,56,214.50
2017,06,02,08,57,220.00
2017,06,02,08,58,227.10
2017,06,02,08,59,251.00
2017,06,02,09,00,252.40
2017,06,02,09,01,274.60
2017,06,02,09,02,288.00
2017,06,02,09,03,272.60
2017,06,02,09,04,269.80
2017,06,02,09,05,252.10
2017,06,02,09,06,235.40
2017,06,02,09,07,224.20
2017,06,02,09,08,218.80
2017,06,02,09,09,216.00
2017,06,02,09,10,218.50
2017,06,02,09,11,223.80
2017,06,02,09,12,236.40
2017,06,02,09,13,252.20
2017,06,02,09,14,272.00
2017,06,02,09,15,275.50
2017,06,02,09,16,260.20
2017,06,02,09,17,252.80
2017,06,02,09,18,266.30
2017,06,02,09,19,274.90
2017,06,02,09,20,272.90
2017,06,02,09,21,278.50
2017,06,02,09,22,285.40
2017,06,02,09,23,298.40
2017,06,02,09,24,300.90
2017,06,02,09,25,297.60
2017,06,02,09,26,290.40
2017,06,02,09,27,282.50
2017,06,02,09,28,278.00
2017,06,02,09,29,274.80
2017,06,02,09,30,264.10
2017,06,02,09,31,261.10
2017,06,02,09,32,277.20
2017,06,02,09,33,285.00
2017,06,02,09,34,274.00
2017,06,02,09,35,275.60
2017,06,02,09,36,280.80
2017,06,02,09,37,295.60
2017,06,02,09,38,306.10
2017,06,02,09,39,311.20
2017,06,02,09,40,315.10
2017,06,02,09,41,316.00
2017,06,02,09,42,318.30
2017,06,02,09,43,318.80
2017,06,02,09,44,316.90
2017,06,02,09,45,309.20
2017,06,02,09,46,301.20
2017,06,02,09,47,308.20
2017,06,02,09,48,315.20
2017,06,02,09,49,336.90
2017,06,02,09,50,313.20
2017,06,02,09,51,321.40
2017,06,02,09,52,334.80
2017,06,02,09,53,338.00
2017,06,02,09,54,338.00
2017,06,02,09,55,338.00
2017,06,02,09,56,338.00
2017,06,02,09,57,391.40
2017,06,02,09,58,389.40
2017,06,02,09,59,340.00
2017,06,02,10,00,288.10
2017,06,02,10,01,258.10
2017,06,02,10,02,251.00
2017,06,02,10,03,255.40
2017,06,02,10,04,269.20
2017,06,02,10,05,287.10
2017,06,02,10,06,282.60
2017,06,02,10,07,256.60
2017,06,02,10,08,230.50
2017,06,02,10,09,212.30
2017,06,02,10,10,210.70
2017,06,02,10,11,220.20
2017,06,02,10,12,226.50
2017,06,02,10,13,223.20
2017,06,02,10,14,215.50
2017,06,02,10,15,206.40
2017,06,02,10,16,200.60
2017,06,02,10,17,202.40
2017,06,02,10,18,206.00
2017,06,02,10,19,214.40
2017,06,02,10,20,236.40
2017,06,02,10,21,259.50
2017,06,02,10,22,293.90
2017,06,02,10,23,344.10
2017,06,02,10,24,353.80
2017,06,02,10,25,319.40
2017,06,02,10,26,282.80
2017,06,02,10,27,260.90
2017,06,02,10,28,263.00
2017,06,02,10,29,291.60
2017,06,02,10,30,330.30
2017,06,02,10,31,377.90
2017,06,02,10,32,418.90
2017,06,02,10,33,432.00
2017,06,02,10,34,581.60
2017,06,02,10,35,571.40
2017,06,02,10,36,420.60
2017,06,02,10,37,414.10
2017,06,02,10,38,433.00
2017,06,02,10,39,444.90
2017,06,02,10,40,434.70
2017,06,02,10,41,418.60
2017,06,02,10,42,389.00
2017,06,02,10,43,364.50
2017,06,02,10,44,347.40
2017,06,02,10,45,333.20
2017,06,02,10,46,329.10
2017,06,02,10,47,330.20
2017,06,02,10,48,338.10
2017,06,02,10,49,349.00
2017,06,02,10,50,345.20
2017,06,02,10,51,309.00
2017,06,02,10,52,275.90
2017,06,02,10,53,260.80
2017,06,02,10,54,257.00
2017,06,02,10,55,257.50
2017,06,02,10,56,260.60
2017,06,02,10,57,266.20
2017,06,02,10,58,274.90
2017,06,02,10,59,285.80
2017,06,02,11,00,291.20
2017,06,02,11,01,279.90
2017,06,02,11,02,268.80
2017,06,02,11,03,270.40
2017,06,02,11,04,274.30
2017,06,02,11,05,277.30
2017,06,02,11,06,282.60
2017,06,02,11,07,283.90
2017,06,02,11,08,283.00
2017,06,02,11,09,286.40
2017,06,02,11,10,301.10
2017,06,02,11,11,307.40
2017,06,02,11,12,303.60
2017,06,02,11,13,294.50
2017,06,02,11,14,285.20
2017,06,02,11,15,289.50
2017,06,02,11,16,286.60
2017,06,02,11,17,279.40
2017,06,02,11,18,268.00
2017,06,02,11,19,248.00
2017,06,02,11,20,230.50
2017,06,02,11,21,210.40
2017,06,02,11,22,201.40
2017,06,02,11,23,200.80
2017,06,02,11,24,210.00
2017,06,02,11,25,224.40
2017,06,02,11,26,229.00
2017,06,02,11,27,228.60
2017,06,02,11,28,223.50
2017,06,02,11,29,215.60
2017,06,02,11,30,212.50
2017,06,02,11,31,220.20
2017,06,02,11,32,228.60
2017,06,02,11,33,228.90
2017,06,02,11,34,227.40
2017,06,02,11,35,231.80
2017,06,02,11,36,240.00
2017,06,02,11,37,243.60
2017,06,02,11,38,244.00
2017,06,02,11,39,240.50
2017,06,02,11,40,236.00
2017,06,02,11,41,236.40
2017,06,02,11,42,235.40
2017,06,02,11,43,221.40
2017,06,02,11,44,205.90
2017,06,02,11,45,201.60
2017,06,02,11,46,197.20
2017,06,02,11,47,193.00
2017,06,02,11,48,192.40
2017,06,02,11,49,199.00
2017,06,02,11,50,211.40
2017,06,02,11,51,221.40
2017,06,02,11,52,230.50
2017,06,02,11,53,237.10
2017,06,02,11,54,245.40
2017,06,02,11,55,253.20
2017,06,02,11,56,263.50
2017,06,02,11,57,272.30
2017,06,02,11,58,282.30
2017,06,02,11,59,294.00
2017,06,02,12,00,311.60
2017,06,02,12,01,339.50
2017,06,02,12,02,372.20
2017,06,02,12,03,385.40
2017,06,02,12,04,389.30
2017,06,02,12,05,390.80
2017,06,02,12,06,388.00
2017,06,02,12,07,394.80
2017,06,02,12,08,404.10
2017,06,02,12,09,391.50
2017,06,02,12,10,371.40
2017,06,02,12,11,356.50
2017,06,02,12,12,354.30
2017,06,02,12,13,358.20
2017,06,02,12,14,365.50
2017,06,02,12,15,384.50
2017,06,02,12,16,409.60
2017,06,02,12,17,414.10
2017,06,02,12,18,411.00
2017,06,02,12,19,402.50
2017,06,02,12,20,401.10
2017,06,02,12,21,383.80
2017,06,02,12,22,382.80
2017,06,02,12,23,391.10
2017,06,02,12,24,392.60
2017,06,02,12,25,386.00
2017,06,02,12,26,384.50
2017,06,02,12,27,401.20
2017,06,02,12,28,416.60
2017,06,02,12,29,431.00
2017,06,02,12,30,438.10
2017,06,02,12,31,418.60
2017,06,02,12,32,402.70
2017,06,02,12,33,394.10
2017,06,02,12,34,378.00
2017,06,02,12,35,378.00
2017,06,02,12,36,376.60
2017,06,02,12,37,391.60
2017,06,02,12,38,410.40
2017,06,02,12,39,449.40
2017,06,02,12,40,452.00
2017,06,02,12,41,452.00
2017,06,02,12,42,452.00
2017,06,02,12,43,477.20
2017,06,02,12,44,930.00
2017,06,02,12,45,930.00
2017,06,02,12,46,930.00
2017,06,02,12,47,889.70
2017,06,02,12,48,868.00
2017,06,02,12,49,642.40
2017,06,02,12,50,657.90
2017,06,02,12,51,650.60
2017,06,02,12,52,556.50
2017,06,02,12,53,514.40
2017,06,02,12,54,507.50
2017,06,02,12,55,502.20
2017,06,02,12,56,492.90
2017,06,02,12,57,492.20
2017,06,02,12,58,502.00
2017,06,02,12,59,513.70
2017,06,02,13,00,521.20
2017,06,02,13,01,513.50
2017,06,02,13,02,495.50
2017,06,02,13,03,497.60
2017,06,02,13,04,508.50
2017,06,02,13,05,514.40
2017,06,02,13,06,522.70
2017,06,02,13,07,542.50
2017,06,02,13,08,583.90
2017,06,02,13,09,647.50
2017,06,02,13,10,687.80
2017,06,02,13,11,717.60
2017,06,02,13,12,811.30
2017,06,02,13,13,777.80
2017,06,02,13,14,528.80
2017,06,02,13,15,518.10
2017,06,02,13,16,542.20
2017,06,02,13,17,574.80
2017,06,02,13,18,581.80
2017,06,02,13,19,595.40
2017,06,02,13,20,608.50
2017,06,02,13,21,615.10
2017,06,02,13,22,636.00
2017,06,02,13,23,686.50
2017,06,02,13,24,634.20
2017,06,02,13,25,590.00
2017,06,02,13,26,574.70
2017,06,02,13,27,562.00
2017,06,02,13,28,579.40
2017,06,02,13,29,598.60
2017,06,02,13,30,607.20
2017,06,02,13,31,663.70
2017,06,02,13,32,722.00
2017,06,02,13,33,626.70
2017,06,02,13,34,554.00
2017,06,02,13,35,526.30
2017,06,02,13,36,501.40
2017,06,02,13,37,531.00
2017,06,02,13,38,531.00
2017,06,02,13,39,525.00
2017,06,02,13,40,492.60
2017,06,02,13,41,539.20
2017,06,02,13,42,577.80
2017,06,02,13,43,636.50
2017,06,02,13,44,659.40
2017,06,02,13,45,626.10
2017,06,02,13,46,580.40
2017,06,02,13,47,563.00
2017,06,02,13,48,563.00
2017,06,02,13,49,759.20
2017,06,02,13,50,1348.00
2017,06,02,13,51,1348.00
2017,06,02,13,52,925.90
2017,06,02,13,53,745.00
2017,06,02,13,54,571.00
2017,06,02,13,55,571.00
2017,06,02,13,56,571.00
2017,06,02,13,57,571.00
2017,06,02,13,58,605.50
2017,06,02,13,59,652.30
2017,06,02,14,00,1323.20
2017,06,02,14,01,1331.70
2017,06,02,14,02,1357.00
2017,06,02,14,03,1201.00
2017,06,02,14,04,1097.00
2017,06,02,14,05,1097.00
2017,06,02,14,06,972.80
2017,06,02,14,07,470.00
2017,06,02,14,08,473.50
2017,06,02,14,09,489.40
2017,06,02,14,10,473.00
2017,06,02,14,11,472.40
2017,06,02,14,12,467.40
2017,06,02,14,13,479.60
2017,06,02,14,14,492.00
2017,06,02,14,15,492.00
2017,06,02,14,16,492.00
2017,06,02,14,17,1168.40
2017,06,02,14,18,1061.20
2017,06,02,14,19,641.40
2017,06,02,14,20,654.00
2017,06,02,14,21,654.00
2017,06,02,14,22,886.00
2017,06,02,14,23,944.00
2017,06,02,14,24,1004.80
2017,06,02,14,25,1156.60
2017,06,02,14,26,1111.00
2017,06,02,14,27,1111.00
2017,06,02,14,28,1120.60
2017,06,02,14,29,1161.90
2017,06,02,14,30,1156.50
2017,06,02,14,31,1145.30
2017,06,02,14,32,1153.00
2017,06,02,14,33,1058.50
2017,06,02,14,34,1053.70
2017,06,02,14,35,1060.00
2017,06,02,14,36,1060.00
2017,06,02,14,37,747.70
2017,06,02,14,38,348.00
2017,06,02,14,39,324.00
2017,06,02,14,40,315.10
2017,06,02,14,41,307.60
2017,06,02,14,42,307.60
2017,06,02,14,43,310.10
2017,06,02,14,44,304.20
2017,06,02,14,45,299.40
2017,06,02,14,46,287.80
2017,06,02,14,47,283.30
2017,06,02,14,48,308.50
2017,06,02,14,49,296.00
2017,06,02,14,50,268.00
2017,06,02,14,51,250.80
2017,06,02,14,52,237.90
2017,06,02,14,53,231.00
2017,06,02,14,54,223.90
2017,06,02,14,55,214.70
2017,06,02,14,56,207.80
2017,06,02,14,57,206.80
2017,06,02,14,58,208.70
2017,06,02,14,59,207.00
2017,06,02,15,00,207.70
2017,06,02,15,01,210.00
2017,06,02,15,02,208.40
2017,06,02,15,03,207.00
2017,06,02,15,04,206.90
2017,06,02,15,05,205.50
2017,06,02,15,06,201.20
2017,06,02,15,07,194.40
2017,06,02,15,08,187.80
2017,06,02,15,09,186.00
2017,06,02,15,10,184.80
2017,06,02,15,11,182.40
2017,06,02,15,12,180.20
2017,06,02,15,13,181.20
2017,06,02,15,14,189.20
2017,06,02,15,15,197.70
2017,06,02,15,16,212.40
2017,06,02,15,17,221.30
2017,06,02,15,18,228.10
2017,06,02,15,19,234.40
2017,06,02,15,20,236.80
2017,06,02,15,21,234.20
2017,06,02,15,22,232.60
2017,06,02,15,23,238.50
2017,06,02,15,24,248.90
2017,06,02,15,25,256.80
2017,06,02,15,26,257.30
2017,06,02,15,27,256.70
2017,06,02,15,28,251.30
2017,06,02,15,29,256.60
2017,06,02,15,30,275.00
2017,06,02,15,31,294.10
2017,06,02,15,32,299.00
2017,06,02,15,33,302.00
2017,06,02,15,34,308.20
2017,06,02,15,35,309.70
2017,06,02,15,36,309.60
2017,06,02,15,37,330.80
2017,06,02,15,38,383.80
2017,06,02,15,39,468.80
2017,06,02,15,40,566.40
2017,06,02,15,41,940.00
2017,06,02,15,42,639.70
2017,06,02,15,43,387.80
2017,06,02,15,44,417.00
2017,06,02,15,45,412.50
2017,06,02,15,46,416.70
2017,06,02,15,47,379.60
2017,06,02,15,48,370.90
2017,06,02,15,49,411.10
2017,06,02,15,50,427.00
2017,06,02,15,51,563.00
2017,06,02,15,52,520.20
2017,06,02,15,53,387.00
2017,06,02,15,54,376.90
2017,06,02,15,55,365.60
2017,06,02,15,56,353.50
2017,06,02,15,57,343.00
2017,06,02,15,58,398.00
2017,06,02,15,59,572.40
2017,06,02,16,00,603.00
2017,06,02,16,01,745.80
2017,06,02,16,02,807.00
2017,06,02,16,03,807.00
2017,06,02,16,04,890.70
2017,06,02,16,05,1035.10
2017,06,02,16,06,996.60
2017,06,02,16,07,955.00
2017,06,02,16,08,948.80
2017,06,02,16,09,945.00
2017,06,02,17,04,135.80
2017,06,02,17,05,144.10
2017,06,02,17,06,171.80
2017,06,02,17,07,196.90
2017,06,02,17,08,218.00
2017,06,02,17,09,301.80
2017,06,02,17,10,384.40
2017,06,02,17,11,360.00
2017,06,02,17,12,225.70
2017,06,02,17,13,194.90
2017,06,02,17,14,183.00
2017,06,02,17,15,192.00
2017,06,02,17,16,202.00
2017,06,02,17,17,248.50
2017,06,02,17,18,276.60
2017,06,02,17,19,278.00
2017,06,02,17,20,366.50
2017,06,02,17,21,584.20
2017,06,02,17,22,590.80
2017,06,02,17,23,535.70
2017,06,02,17,24,534.30
2017,06,02,17,25,517.60
2017,06,02,17,26,497.20
2017,06,02,17,27,490.50
2017,06,02,17,28,526.00
2017,06,02,17,29,526.00
2017,06,02,17,30,514.70
2017,06,02,17,31,517.80
2017,06,02,17,32,520.00
2017,06,02,17,33,520.00
2017,06,02,17,34,325.60
2017,06,02,17,35,221.00
2017,06,02,17,36,472.80
2017,06,02,17,37,457.80
2017,06,02,17,38,493.70
2017,06,02,17,39,477.90
2017,06,02,17,40,483.10
2017,06,02,17,41,456.40
2017,06,02,17,42,454.20
2017,06,02,17,43,440.00
2017,06,02,17,44,459.90
2017,06,02,17,45,475.70
2017,06,02,17,46,479.20
2017,06,02,17,47,463.50
2017,06,02,17,48,474.00
2017,06,02,17,49,484.30
2017,06,02,17,50,477.30
2017,06,02,17,51,483.20
2017,06,02,17,52,480.60
2017,06,02,17,53,475.50
2017,06,02,17,54,479.20
2017,06,02,17,55,473.20
2017,06,02,17,56,466.80
2017,06,02,17,57,459.80
2017,06,02,17,58,451.80
2017,06,02,17,59,446.30
2017,06,02,18,00,441.20
2017,06,02,18,01,432.50
2017,06,02,18,02,420.90
2017,06,02,18,03,400.80
2017,06,02,18,04,422.50
2017,06,02,18,05,432.00
2017,06,02,18,06,427.60
2017,06,02,18,07,400.80
2017,06,02,18,08,404.40
2017,06,02,18,09,420.00
2017,06,02,18,10,418.50
2017,06,02,18,11,410.20
2017,06,02,18,12,396.20
2017,06,02,18,13,397.00
2017,06,02,18,14,397.00
2017,06,02,18,15,395.00
2017,06,02,18,16,394.00
2017,06,02,18,17,390.70
2017,06,02,18,18,382.00
2017,06,02,18,19,385.20
2017,06,02,18,20,381.00
2017,06,02,18,21,380.30
2017,06,02,18,22,337.10
2017,06,02,18,23,346.50
2017,06,02,18,24,355.20
2017,06,02,18,25,351.40
2017,06,02,18,26,365.40
2017,06,02,18,27,344.80
2017,06,02,18,28,354.10
2017,06,02,18,29,346.90
2017,06,02,18,30,350.10
2017,06,02,18,31,347.60
2017,06,02,18,32,347.80
2017,06,02,18,33,346.00
2017,06,02,18,34,343.50
2017,06,02,18,35,336.30
2017,06,02,18,36,336.70
2017,06,02,18,37,333.10
2017,06,02,18,38,330.20
2017,06,02,18,39,327.50
2017,06,02,18,40,325.00
2017,06,02,18,41,320.30
2017,06,02,18,42,311.70
2017,06,02,18,43,313.90
2017,06,02,18,44,313.80
2017,06,02,18,45,310.00
2017,06,02,18,46,305.90
2017,06,02,18,47,301.40
2017,06,02,18,48,297.60
2017,06,02,18,49,296.00
2017,06,02,18,50,295.10
2017,06,02,18,51,292.50
2017,06,02,18,52,289.90
2017,06,02,18,53,286.50
2017,06,02,18,54,283.50
2017,06,02,18,55,279.50
2017,06,02,18,56,269.50